Weather History for Indian Mountain, AK

Change the Weather History Date:

Saturday, October 6, 2012

  Actual Average Record
Temperature  
Mean Temperature 38 °F -  
Max Temperature 40 °F 29 °F 42 °F (2001)
Min Temperature 34 °F 20 °F 15 °F (2007)
Degree Days  
Heating Degree Days 28    
Moisture  
Dew Point 34 °F    
Average Humidity 86    
Maximum Humidity 94    
Minimum Humidity 70    
Precipitation  
Precipitation 0.17 in - - ()
Sea Level Pressure  
Sea Level Pressure 30.10 in    
Wind  
Wind Speed 3 mph (SW)    
Max Wind Speed 9 mph    
Max Gust Speed 15 mph    
Visibility 9 miles    
Events Rain , Snow    
Averages and records for this station are not official NWS values.
T = Trace of Precipitation, MM = Missing Value Source: NWS Daily Summary

Daily Weather History Graph

Daily Weather History Graph

Search for Another Location

Airport:

Trip Planner

Search our weather history database for the weather conditions in past years. The results will help you decide how hot, cold, wet, or windy it might be!

Date:

Astronomy

Oct. 06, 2012 Rise Set
Actual Time 8:43 AM AKDT 7:19 PM AKDT
Civil Twilight 7:52 AM AKDT 8:10 PM AKDT
Nautical Twilight 6:52 AM AKDT 9:10 PM AKDT
Astronomical Twilight 5:49 AM AKDT 10:13 PM AKDT
Moon 9:35 PM AKDT (10/6) 4:58 PM AKDT (10/6)
Length of Visible Light 12h 18m
Length of Day
10h 36m
Waning Gibbous, 64% of the Moon is Illuminated
Oct 6
Waning Gibbous
Oct 7
Last Quarter
Oct 15
New
Oct 21
First Quarter
Oct 29
Full

Hourly Weather History & Observations

Time (AKDT) Temp. Windchill Dew Point Humidity Pressure Visibility Wind Dir Wind Speed Gust Speed Precip Events Conditions
12:55 AM 34.9 °F - 33.4 °F 94% 29.98 in 10.0 mi WNW 1.2 mph - N/A   Partly Cloudy
1:55 AM 36.3 °F - 34.3 °F 93% 29.98 in 10.0 mi SSW 1.2 mph - N/A   Clear
2:55 AM 36.1 °F - 34.0 °F 92% 29.97 in 10.0 mi Variable 2.3 mph - N/A   Mostly Cloudy
3:55 AM 38.7 °F - 34.0 °F 83% 29.96 in 10.0 mi West 1.2 mph - N/A   Overcast
4:55 AM 36.5 °F - 33.6 °F 89% 29.96 in 10.0 mi Variable 2.3 mph - N/A   Mostly Cloudy
5:55 AM 35.2 °F - 33.3 °F 92% 29.97 in 10.0 mi West 1.2 mph - N/A   Mostly Cloudy
6:20 AM 35.6 °F - 33.8 °F 93% 29.97 in 10.0 mi South 2.3 mph - N/A Rain Light Rain
6:55 AM 37.0 °F 34.5 °F 34.0 °F 89% 29.99 in 7.0 mi South 3.5 mph - 0.02 in Rain Rain
7:55 AM 37.4 °F - 34.3 °F 89% 30.00 in 10.0 mi Variable 2.3 mph - 0.00 in Rain Light Rain Showers
8:55 AM 37.6 °F 35.1 °F 34.9 °F 90% 30.01 in 10.0 mi Variable 3.5 mph - 0.02 in Rain Light Rain
9:55 AM 38.1 °F - 35.1 °F 89% 30.03 in 10.0 mi WNW 2.3 mph - 0.00 in Rain Light Rain
10:55 AM 38.1 °F 35.7 °F 34.9 °F 88% 30.06 in 10.0 mi Variable 3.5 mph - 0.00 in Rain Light Rain Showers
11:55 AM 38.3 °F - 35.2 °F 89% 30.09 in 10.0 mi Variable 1.2 mph - 0.02 in Rain Light Rain
12:20 PM 39.2 °F 37.0 °F 35.6 °F 87% 30.09 in 10.0 mi Variable 3.5 mph - N/A Rain Light Rain
12:55 PM 39.0 °F 35.7 °F 34.9 °F 85% 30.10 in 10.0 mi Variable 4.6 mph - N/A   Mostly Cloudy
1:55 PM 39.7 °F 35.6 °F 33.6 °F 79% 30.13 in 10.0 mi Variable 5.8 mph - N/A   Mostly Cloudy
2:40 PM 41.0 °F 35.8 °F 32.0 °F 70% 30.13 in 10.0 mi SSW 8.1 mph 15.0 mph N/A   Mostly Cloudy
2:55 PM 40.3 °F - 32.5 °F 74% 30.13 in 10.0 mi Variable 2.3 mph - N/A   Mostly Cloudy
3:00 PM 41.0 °F 37.1 °F 32.0 °F 70% 30.13 in 10.0 mi Variable 5.8 mph - N/A   Mostly Cloudy
3:55 PM 40.5 °F 34.6 °F 32.0 °F 72% 30.12 in 10.0 mi South 9.2 mph 12.7 mph N/A   Mostly Cloudy
4:40 PM 39.2 °F 35.9 °F 33.8 °F 81% 30.14 in 4.0 mi Variable 4.6 mph - N/A Rain Rain
4:55 PM 36.3 °F 30.1 °F 33.4 °F 89% 30.15 in 4.0 mi SW 8.1 mph - 0.05 in Rain Rain
5:00 PM 35.6 °F 32.8 °F 33.8 °F 93% 30.15 in 2.5 mi Variable 3.5 mph - N/A Rain , Snow Light Rain
5:20 PM 35.6 °F - 33.8 °F 93% 30.16 in 4.0 mi Variable 2.3 mph - N/A Rain , Snow Rain
5:40 PM 37.4 °F 32.1 °F 33.8 °F 87% 30.15 in 10.0 mi Variable 6.9 mph - N/A Rain Light Rain
5:55 PM 37.2 °F - 33.6 °F 87% 30.15 in 10.0 mi Variable 2.3 mph - 0.06 in   Mostly Cloudy
6:20 PM 37.4 °F - 33.8 °F 87% 30.14 in 10.0 mi Variable 1.2 mph - N/A   Mostly Cloudy
6:55 PM 37.2 °F - 33.8 °F 87% 30.15 in 10.0 mi East 2.3 mph - N/A Rain Light Rain Showers
7:55 PM 36.0 °F - 33.3 °F 90% 30.17 in 10.0 mi East 2.3 mph - N/A Rain Light Rain Showers
8:20 PM 35.6 °F - 33.8 °F 93% 30.17 in 10.0 mi Variable 1.2 mph - N/A   Mostly Cloudy
8:55 PM 36.7 °F - 33.3 °F 87% 30.18 in 10.0 mi West 1.2 mph - N/A Rain Light Rain Showers
9:20 PM 37.4 °F - 33.8 °F 87% 30.19 in 10.0 mi Variable 2.3 mph - N/A   Mostly Cloudy
9:55 PM 37.2 °F - 32.0 °F 81% 30.20 in 10.0 mi Variable 2.3 mph - N/A   Mostly Cloudy
10:20 PM 37.4 °F - 32.0 °F 81% 30.20 in 10.0 mi SW 1.2 mph - N/A Rain Light Rain
10:40 PM 37.4 °F - 33.8 °F 87% 30.21 in 10.0 mi WNW 1.2 mph - N/A Rain Light Rain
10:55 PM 36.9 °F - 32.9 °F 86% 30.21 in 10.0 mi Variable 1.2 mph - N/A Rain Light Rain
11:00 PM 37.4 °F - 32.0 °F 81% 30.21 in 10.0 mi SSW 2.3 mph - N/A Rain Light Rain Showers
11:55 PM 37.2 °F - 32.4 °F 83% 30.22 in 10.0 mi Variable 1.2 mph - N/A Rain Light Rain Showers